Regional Weather Roundup
Issued by NWS

Home | Current Version | Previous Version | Text Only | Print | Product List | Glossary Off
Versions: 1 2 3 4 5 6 7 8 9 10 11 12 13 14 15 16 17 18 19 20 21 22 23 24 25 26 27 28 29 30 31 32 33 34 35 36 37 38 39 40 41 42 43 44 45 46 47 48 49 50

328
ASUS43 KDMX 071808
RWRIA

WEATHER ROUNDUP FOR IOWA
NATIONAL WEATHER SERVICE DES MOINES IA
1200 PM CST SUN FEB 07 2016

NOTE: "FAIR" INDICATES FEW OR NO CLOUDS BELOW 12,000 FEET WITH NO
SIGNIFICANT WEATHER AND/OR OBSTRUCTIONS TO VISIBILITY.

* - THESE STATIONS ARE NOT NWS STATIONS...THUS NOT UNDER NWS
QUALITY CONTROL.  THEY ALSO DO NOT REPORT WEATHER SUCH
AS PRECIPITATION OR FOG.

IAZ001>003-012>014-020>022-031>034-043>046-071900-
   NORTHWEST IOWA

CITY           SKY/WX    TMP DP  RH WIND       PRES   REMARKS
CARROLL *      SUNNY     37  30  75 W21       29.89F WCI  27
CHEROKEE *     SUNNY     39  29  66 W17G24    29.87F WCI  30
DENISON *      SUNNY     39  28  65 W20G29    29.91F WCI  30
LE MARS *      MOSUNNY   39  30  70 W20G26    29.90F WCI  30
ORANGE CITY *  MOSUNNY   37  28  70 W25G31    29.86S WCI  26
SHELDON *      PTSUNNY   36  28  75 W23       29.81F WCI  24
SIOUX CITY     MOSUNNY   42  26  53 W17       29.91F
6HR MIN TEMP:  37; 6HR MAX TEMP:  42;

SPENCER        SUNNY     37  27  67 W23       29.82F WCI  26
6HR MIN TEMP:  31; 6HR MAX TEMP:  37;

STORM LAKE *   SUNNY     37  30  75 W26G33    29.86F WCI  26
$$

IAZ055>058-069>071-079>083-090>094-071900-
   SOUTHWEST IOWA

CITY           SKY/WX    TMP DP  RH WIND       PRES   REMARKS
ATLANTIC *     SUNNY     39  28  65 W17G25    29.95F WCI  30
AUDUBON *      MOSUNNY   41  30  65 W12G17    29.94S
CLARINDA *     SUNNY     45  32  61 NW20      30.02S
COUNCIL BLFS * SUNNY     41  28  60 W14G23    29.99F
CRESTON *      SUNNY     41  30  65 W21       29.96F
HARLAN  *      SUNNY     39  30  70 W17G28    29.98F WCI  30
LAMONI         SUNNY     45  30  55 W21       29.95F
6HR MIN TEMP:  33; 6HR MAX TEMP:  45;

RED OAK *      PTSUNNY   43  30  61 W18G30    30.00S
SHENANDOAH *   SUNNY     45  32  61 NW18G28   30.03S
$$

IAZ047>049-059>061-072>074-084-071900-
   CENTRAL IOWA

CITY           SKY/WX    TMP DP  RH WIND       PRES   REMARKS
AMES           CLOUDY    39  28  64 W20G26    29.87S WCI  29
6HR MIN TEMP:  33; 6HR MAX TEMP:  39;

ANKENY *       SUNNY     41  28  60 W20G25    29.89F
BOONE *        SUNNY     39  28  65 W17G26    29.86S WCI  30
CHARITON *     SUNNY     45  28  53 W20       29.93S
DES MOINES     PTSUNNY   43  26  51 W16       29.90F
6HR MIN TEMP:  35; 6HR MAX TEMP:  43;

GRINNELL*      MOSUNNY   39  28  65 W17G28    29.87S WCI  30
KNOXVILLE *    SUNNY     45  28  53 NW20G30   29.89F
MARSHALLTOWN   MOSUNNY   38  28  67 W20G25    29.84S WCI  28
6HR MIN TEMP:  32; 6HR MAX TEMP:  38;

NEWTON *       SUNNY     41  30  65 W21G30    29.87F
PELLA *        SUNNY     44  28  52 W17G23    29.91F
$$

IAZ004>006-015-016-023>025-035-036-071900-
   NORTH CENTRAL IOWA

CITY           SKY/WX    TMP DP  RH WIND       PRES   REMARKS
ALGONA *       SUNNY     37  30  75 W18       29.81S WCI  27
CLARION *      SUNNY     37  30  75 W20       29.82S WCI  27
ESTHERVILLE    SUNNY     37  28  70 W26       29.78F WCI  25
6HR MIN TEMP:  32; 6HR MAX TEMP:  37;

FORT DODGE *   CLOUDY    39  28  65 W16G24    29.85F WCI  30
MASON CITY     PTSUNNY   38  29  70 W22       29.78F WCI  27
6HR MIN TEMP:  30; 6HR MAX TEMP:  38;

FOREST CITY *  SUNNY     36  30  80 W21       29.77F WCI  24
WEBSTER CITY * SUNNY     37  30  75 W16G25    29.82F WCI  28
IOWA FALLS *     N/A     37  30  75 W20       29.82F WCI  27
$$

IAZ007>011-017>019-026>030-037>042-050>054-066-071900-
   NORTHEAST IOWA

CITY           SKY/WX    TMP DP  RH WIND       PRES   REMARKS
CEDAR RAPIDS   SUNNY     42  31  64 W22       29.81S
6HR MIN TEMP:  34; 6HR MAX TEMP:  42;

CHARLES CITY * SUNNY     37  28  70 W20G28    29.77F WCI  27
CLINTON *      SUNNY     43  33  68 W22G28    29.77F
DECORAH *      SUNNY     37  27  65 W10G18    29.71F WCI  30
DUBUQUE        MOSUNNY   36  27  69 W18       29.75F WCI  26
6HR MIN TEMP:  32; 6HR MAX TEMP:  36;

MONTICELLO *   SUNNY     39  30  70 W14       29.78F WCI  31
OELWEIN *      CLOUDY    37  28  70 W18G24    29.77F WCI  27
WATERLOO       PTSUNNY   39  26  59 W15G24    29.79F WCI  31
6HR MIN TEMP:  30; 6HR MAX TEMP:  39;

$$

IAZ064-065-067-068-078-071900-
   EAST CENTRAL IOWA

CITY           SKY/WX    TMP DP  RH WIND       PRES   REMARKS
DAVENPORT      SUNNY     44  31  60 W22G28    29.80F
6HR MIN TEMP:  36; 6HR MAX TEMP:  44;

IOWA CITY      SUNNY     45  26  47 NW22G31   29.85S
6HR MIN TEMP:  34; 6HR MAX TEMP:  45;

MT. PLEASANT * SUNNY     47  32  56 W18G24    29.86F
MUSCATINE *    SUNNY     46  28  49 NW18      29.84F
QUAD CITIES    SUNNY     45  30  55 W16G24    29.81S
6HR MIN TEMP:  37; 6HR MAX TEMP:  46;

$$

IAZ062-063-075>077-085>089-095>099-071900-
   SOUTHEAST IOWA

CITY           SKY/WX    TMP DP  RH WIND       PRES   REMARKS
BURLINGTON     SUNNY     45  32  60 NW13G22   29.86S
6HR MIN TEMP:  36; 6HR MAX TEMP:  45;

FAIRFIELD *    SUNNY     45  30  57 NW22G28   29.87S
FORT MADISON * SUNNY     45  34  65 NW14      29.88R
KEOKUK *       SUNNY     45  32  61 W12G18    29.88S
OSKALOOSA *      N/A     43  31  61 NW22G29   29.89F
CENTERVILLE *    N/A    N/A N/A N/A MISG        N/A
OTTUMWA        SUNNY     46  28  49 NW17G26   29.89S
6HR MIN TEMP:  36; 6HR MAX TEMP:  46;

WASHINGTON *   SUNNY     43  30  61 NW24G30   29.87F
$$

ABBREVIATIONS USED IN REMARKS
   TC - TEMPERATURES IN CELSIUS
  WCI - WIND CHILL INDEX
   HX - HEAT INDEX
  VSB - VISIBILITY
$$





USA.gov is the U.S. government's official web portal to all federal, state and local government web resources and services.